Tracking 23114 objects as of 15-May-2021
HD Live streaming from Space Station
objects crossing your sky now

AVUM DEB (ADAPTOR)

Track AVUM DEB (ADAPTOR) now!
10-day predictions


NORAD ID: 41775
Int'l Code: 2016-058F
Perigee: 471.4 km
Apogee: 477.4 km
Inclination: 97.3 °
Period: 93.9 minutes
Semi major axis: 6845 km
RCS: Unknown
Launch date: September 16, 2016
Source: European Space Agency (ESA)
Launch site: FRENCH GUIANA (FRGUI)

Note: This is SATELLITE DEBRIS
aabbcc
Your satellite tracking list
Your tracking list is empty




NASA's NSSDC Master Catalog

Two Line Element Set (TLE):
1 41775U 16058F   21134.29439601  .00006672  00000-0  21257-3 0  9990
2 41775  97.2691 207.5179 0004391 182.8348 177.2871 15.32866808259536
Source of the keplerian elements: AFSPC